Flag for Thailand Weather past 2 weeks in Udon Thani, Thailand

Now
84 °F

Passing clouds.


Feels Like: 92 °F
Forecast: 78 / 93 °F
Wind: 3 mph from Southwest

Location: Udon Thani Airport

Current Time: May 24, 2015 at 9:09:50 PM

Latest Report: May 24, 2015 at 8:00 PM


Visibility: N/A

Pressure: 29.71 "Hg

Humidity: 74%

Dew point: 75 °F

Location of Udon ThaniLocation

Historic Weather in Udon Thani — Graph

°F

Udon Thani temperature yesterday

Maximum temperature yesterday: 95 °F (at 4:00 PM)
Minimum temperature yesterday: 81 °F (at 6:00 AM)
Average temperature yesterday: 89 °F

Past Weeks' High & Low Weather Summary

 TemperatureHumidityPressure
High99 °F (May 11, 3:00 PM)100% (May 12, 4:00 PM)29.92 "Hg (May 12, 4:00 PM)
Low75 °F (May 9, 8:00 PM)44% (May 11, 3:00 PM)29.62 "Hg (May 19, 4:00 PM)
Average87 °F69%29.75 "Hg
* Reported May 9 8:00 PM — May 24 8:00 PM, Udon Thani, Weather by CustomWeather, © 2015

Note: Actual official high and low records may vary slightly from our data, if they occured in-between our weather recording intervals... More about our weather records

Advertising

Udon Thani weather history for previous 24 hours

 ConditionsComfort  
Time TempWeatherWind HumidityBarometerVisibility
8:00 PM
Sun, May 24
84 °FPassing clouds.3 mph74%29.71 "HgN/A
7:00 PM86 °FPassing clouds.No wind66%29.68 "HgN/A
6:00 PM88 °FScattered clouds.9 mph62%29.65 "HgN/A
5:00 PM91 °FThunderstorms. Partly sunny.5 mph59%29.65 "HgN/A
4:00 PM95 °FThunderstorms. Partly sunny.5 mph53%29.68 "HgN/A
3:00 PM95 °FPartly sunny.5 mph53%29.68 "HgN/A
2:00 PM93 °FPartly sunny.5 mph53%29.71 "HgN/A
1:00 PM93 °FPartly sunny.2 mph53%29.71 "HgN/A
12:00 PM93 °FBroken clouds.5 mph56%29.74 "HgN/A
11:00 AM91 °FScattered clouds.5 mph56%29.74 "HgN/A
10:00 AM90 °FPassing clouds.5 mph63%29.77 "HgN/A
9:00 AM86 °FPassing clouds.6 mph66%29.77 "HgN/A
8:00 AM84 °FScattered clouds.5 mph74%29.77 "HgN/A
7:00 AM82 °FPassing clouds.5 mph74%29.74 "HgN/A
6:00 AM81 °FScattered clouds.5 mph79%29.74 "HgN/A
10:00 PM
Sat, May 23
86 °FPassing clouds.3 mph66%29.74 "HgN/A
9:00 PM86 °FClear.5 mph66%29.71 "Hg10 mi
Weather by CustomWeather, © 2015

See weather overviewHow to use our weather pages